Trinity Center, CA

10:19 AM PDT on April 28, 2017 (GMT -0700)
Trinity Center

Weather History for KO86 - October, 2012

Change the Weather History Date:

Tuesday, October 16, 2012

  Actual Average (KMHS) Record (KMHS)
Temperature  
Mean Temperature 66 °F -  
Max Temperature 77 °F 63 °F 84 °F (1955)
Min Temperature 55 °F 34 °F 27 °F (1920)
Cooling Degree Days 1    
Growing Degree Days 16 (Base 50)    
Moisture  
Dew Point 44 °F    
Average Humidity 52    
Maximum Humidity 88    
Minimum Humidity 12    
Precipitation  
Precipitation 0.00 in - - ()
Sea Level Pressure  
Sea Level Pressure 30.07 in    
Wind  
Wind Speed 3 mph ()    
Max Wind Speed 13 mph    
Max Gust Speed 22 mph    
Visibility 9.8 miles    
Events      
Averages and records for this station are not official NWS values.
T = Trace of Precipitation, MM = Missing Value Source: Averaged Metar Reports

Daily Weather History Graph

Daily Weather History Graph

Search for Another Location

Airport or City:

Trip Planner

Search our weather history database for the weather conditions in past years. The results will help you decide how hot, cold, wet, or windy it might be!

Date:

Astronomy

Oct. 16, 2012 Rise Set
Actual Time 7:23 AM PDT 6:27 PM PDT
Civil Twilight 6:56 AM PDT 6:55 PM PDT
Nautical Twilight 6:24 AM PDT 7:27 PM PDT
Astronomical Twilight 5:52 AM PDT 7:59 PM PDT
Moon 8:54 AM PDT (10/16) 7:15 PM PDT (10/16)
Length of Visible Light 11h 59m
Length of Day
11h 03m
New Moon, 2% of the Moon is Illuminated
Oct 16
New Moon
Oct 21
First Quarter
Oct 29
Full
Nov 6
Last Quarter
Nov 13
New

Hourly Weather History & Observations

Time (PDT) Temp. Dew Point Humidity Pressure Visibility Wind Dir Wind Speed Gust Speed Precip Events Conditions
12:10 AM 64.4 °F 57.2 °F 77% 30.05 in 10.0 mi West 3.5 mph - N/A   Overcast
12:30 AM 64.4 °F 57.2 °F 77% 30.05 in 10.0 mi Calm Calm - N/A   Overcast
12:50 AM 66.2 °F 57.2 °F 73% 30.05 in 10.0 mi Calm Calm - N/A   Overcast
1:10 AM 64.4 °F 57.2 °F 77% 30.05 in 9.0 mi Calm Calm - N/A   Overcast
1:30 AM 64.4 °F 57.2 °F 77% 30.05 in 10.0 mi NNE 4.6 mph - N/A   Overcast
1:50 AM 64.4 °F 59.0 °F 83% 30.05 in 10.0 mi Calm Calm - N/A   Overcast
2:30 AM 62.6 °F 59.0 °F 88% 30.05 in 10.0 mi Calm Calm - N/A   Overcast
3:10 AM 62.6 °F 59.0 °F 88% 30.03 in 10.0 mi Calm Calm - N/A   Overcast
3:30 AM 62.6 °F 59.0 °F 88% 30.02 in 10.0 mi Calm Calm - N/A   Overcast
3:50 AM 62.6 °F 59.0 °F 88% 30.02 in 6.0 mi WNW 4.6 mph - N/A   Overcast
4:10 AM 62.6 °F 59.0 °F 88% 30.02 in 10.0 mi NNW 3.5 mph - N/A   Overcast
4:30 AM 62.6 °F 59.0 °F 88% 30.02 in 10.0 mi Calm Calm - N/A   Overcast
5:10 AM 62.6 °F 59.0 °F 88% 30.02 in 10.0 mi WNW 3.5 mph - N/A   Overcast
5:30 AM 62.6 °F 59.0 °F 88% 30.02 in 10.0 mi Calm Calm - N/A   Overcast
5:50 AM 62.6 °F 59.0 °F 88% 30.02 in 10.0 mi Calm Calm - N/A   Overcast
6:30 AM 62.6 °F 59.0 °F 88% 30.03 in 10.0 mi West 4.6 mph - N/A   Overcast
6:50 AM 62.6 °F 59.0 °F 88% 30.03 in 10.0 mi Calm Calm - N/A   Overcast
7:10 AM 62.6 °F 59.0 °F 88% 30.04 in 10.0 mi Calm Calm - N/A   Overcast
7:30 AM 62.6 °F 59.0 °F 88% 30.04 in 10.0 mi Calm Calm - N/A   Overcast
7:50 AM 62.6 °F 59.0 °F 88% 30.05 in 10.0 mi West 3.5 mph - N/A   Overcast
8:10 AM 62.6 °F 59.0 °F 88% 30.05 in 10.0 mi Calm Calm - N/A   Overcast
8:30 AM 62.6 °F 59.0 °F 88% 30.06 in 10.0 mi Calm Calm - N/A   Overcast
9:10 AM 64.4 °F 59.0 °F 83% 30.07 in 10.0 mi Calm Calm - N/A   Overcast
9:50 AM 64.4 °F 57.2 °F 77% 30.08 in 10.0 mi Calm Calm - N/A   Mostly Cloudy
10:10 AM 66.2 °F 57.2 °F 73% 30.09 in 10.0 mi WSW 3.5 mph - N/A   Mostly Cloudy
10:30 AM 68.0 °F 57.2 °F 68% 30.09 in 10.0 mi Calm Calm - N/A   Mostly Cloudy
10:50 AM 68.0 °F 57.2 °F 68% 30.09 in 10.0 mi Calm Calm - N/A   Partly Cloudy
11:10 AM 71.6 °F 57.2 °F 60% 30.09 in 10.0 mi Calm Calm - N/A   Clear
11:30 AM 71.6 °F 57.2 °F 60% 30.08 in 10.0 mi East 3.5 mph - N/A   Clear
11:50 AM 71.6 °F 51.8 °F 50% 30.08 in 10.0 mi NE 4.6 mph - N/A   Mostly Cloudy
12:10 PM 73.4 °F 46.4 °F 38% 30.07 in 10.0 mi NNE 5.8 mph - N/A   Scattered Clouds
12:30 PM 75.2 °F 39.2 °F 27% 30.06 in 10.0 mi NE 8.1 mph - N/A   Partly Cloudy
12:50 PM 75.2 °F 37.4 °F 25% 30.06 in 5.0 mi NE 9.2 mph - N/A   Clear
1:10 PM 77.0 °F 32.0 °F 19% 30.05 in 10.0 mi NNE 11.5 mph 17.3 mph N/A   Clear
1:50 PM 77.0 °F 26.6 °F 16% 30.05 in 10.0 mi North 9.2 mph 17.3 mph N/A   Clear
2:10 PM 77.0 °F 24.8 °F 14% 30.05 in 10.0 mi North 5.8 mph 19.6 mph N/A   Clear
2:30 PM 77.0 °F 23.0 °F 13% 30.05 in 10.0 mi North 9.2 mph - N/A   Clear
2:50 PM 77.0 °F 19.4 °F 12% 30.05 in 10.0 mi NW 12.7 mph 18.4 mph N/A   Clear
3:10 PM 77.0 °F 24.8 °F 14% 30.05 in 10.0 mi NNE 3.5 mph - N/A   Clear
3:30 PM 77.0 °F 24.8 °F 14% 30.05 in 10.0 mi WNW 3.5 mph - N/A   Clear
4:10 PM 77.0 °F 28.4 °F 17% 30.05 in 10.0 mi North 4.6 mph - N/A   Clear
4:30 PM 75.2 °F 32.0 °F 21% 30.06 in 10.0 mi North 10.4 mph 17.3 mph N/A   Clear
4:50 PM 75.2 °F 32.0 °F 21% 30.06 in 10.0 mi NNW 8.1 mph - N/A   Clear
5:10 PM 75.2 °F 28.4 °F 18% 30.06 in 10.0 mi North 8.1 mph - N/A   Clear
5:30 PM 73.4 °F 28.4 °F 19% 30.07 in 10.0 mi NNW 11.5 mph 16.1 mph N/A   Clear
5:50 PM 71.6 °F 24.8 °F 17% 30.08 in 10.0 mi North 8.1 mph - N/A   Clear
6:10 PM 68.0 °F 24.8 °F 20% 30.08 in 10.0 mi North 5.8 mph - N/A   Clear
6:30 PM 68.0 °F 24.8 °F 20% 30.09 in 10.0 mi North 5.8 mph - N/A   Clear
6:50 PM 66.2 °F 26.6 °F 23% 30.10 in 10.0 mi North 4.6 mph - N/A   Clear
7:10 PM 62.6 °F 28.4 °F 27% 30.11 in 10.0 mi WNW 3.5 mph - N/A   Clear
7:30 PM 59.0 °F 28.4 °F 31% 30.12 in 10.0 mi NW 4.6 mph - N/A   Clear
7:50 PM 57.2 °F 32.0 °F 38% 30.13 in 10.0 mi NW 3.5 mph - N/A   Clear
8:10 PM 57.2 °F 32.0 °F 38% 30.12 in 10.0 mi NW 3.5 mph - N/A   Clear
8:30 PM 55.4 °F 32.0 °F 41% 30.13 in 10.0 mi NW 4.6 mph - N/A   Clear
8:50 PM 59.0 °F 33.8 °F 39% 30.14 in 10.0 mi NNW 9.2 mph - N/A   Clear
9:10 PM 60.8 °F 32.0 °F 34% 30.14 in 10.0 mi North 6.9 mph - N/A   Clear
9:50 PM 62.6 °F 32.0 °F 32% 30.15 in 10.0 mi North 12.7 mph 21.9 mph N/A   Clear
10:10 PM 60.8 °F 28.4 °F 29% 30.16 in 10.0 mi North 5.8 mph 16.1 mph N/A   Clear
10:30 PM 59.0 °F 30.2 °F 34% 30.16 in 10.0 mi NNW 6.9 mph - N/A   Clear
10:50 PM 59.0 °F 30.2 °F 34% 30.17 in 10.0 mi Calm Calm - N/A   Clear
11:10 PM 57.2 °F 32.0 °F 38% 30.17 in 10.0 mi NE 9.2 mph - N/A   Clear
11:30 PM 57.2 °F 35.6 °F 44% 30.19 in 10.0 mi NE 10.4 mph - N/A   Clear